Regional Weather Roundup
Issued by NWS Jackson, KY

Home | Current Version | Previous Version | Text Only | Print | Product List | Glossary Off
Versions: 1 2 3 4 5 6 7 8 9 10 11 12 13 14 15 16 17 18 19 20 21 22 23 24 25 26 27 28 29 30 31 32 33 34 35 36 37 38 39 40 41 42 43 44 45 46 47 48 49 50

000
ASUS43 KJKL 272010
RWRJKL

EAST KENTUCKY HOURLY WEATHER ROUNDUP
NATIONAL WEATHER SERVICE JACKSON KY
300 PM EST THU NOV 27 2014

NOTE: "FAIR" INDICATES FEW OR NO CLOUDS BELOW 12,000 FEET WITH
NO SIGNIFICANT WEATHER AND/OR OBSTRUCTIONS TO VISIBILITY.

* THESE REPORTS ARE NOT UNDER NWS QUALITY CONTROL AND MAY NOT
  REPORT WEATHER SUCH AS PRECIPITATION AND FOG.

KYZ079-080-083-085-087-088-110-112-115-119-120-272100
...EASTERN KENTUCKY...

CITY           SKY/WX    TMP DP  RH WIND       PRES   REMARKS
JACKSON        CLOUDY    30  22  72 VRB7G20   30.27R WCI  23
LONDON         CLOUDY    31  24  75 NW7       30.32R HAZE    WCI  24
SOMERSET*      CLOUDY    30  27  86 NW9       30.37R WCI  22
MONTICELLO*    FLURRIES  32  27  82 NW15      30.38S WCI  22
HARLAN APT*    CLOUDY    32  28  86 W8G20     30.26R WCI  25
HAZARD APT*    CLOUDY    32  23  69 NW14G23   30.28R WCI  22
BLACK MTN*       N/A     23  23 100 N3          N/A
PIKEVILLE APT* CLOUDY    30  23  74 W13G20    30.23  WCI  20
BIG SANDY*     CLOUDY    32  24  72 W7        30.25R WCI  26
MOREHEAD APT*  CLOUDY    34  21  60 W7G16     30.29R WCI  28
$$

KYZ035-036-041-042-044-050-067-078-099-272100
...CENTRAL KENTUCKY...

CITY           SKY/WX    TMP DP  RH WIND       PRES   REMARKS
MT STERLING*   CLOUDY    32  25  74 NW8       30.30S WCI  25
FLEMING/MASON* CLOUDY    32  21  64 W14       30.29R WCI  22
DANVILLE*      CLOUDY    32  27  80 NW10      30.34S WCI  24
RICHMOND*      CLOUDY    32  25  74 W10       30.31S WCI  24
LEXINGTON      CLOUDY    33  23  66 W12       30.31R WCI  24
FRANKFORT      CLOUDY    33  22  63 W10G17    30.32R WCI  25
$$

KYZ091>093-OHZ055-061-077-WVZ005-015-034-035-042-272100
...SOUTHERN OHIO/WEST VIRGINIA...

CITY           SKY/WX    TMP DP  RH WIND       PRES   REMARKS
COVINGTON      LGT SNOW  31  22  69 W17       30.29S WCI  19
COLUMBUS       CLOUDY    33  21  61 W12       30.21R WCI  24
DAYTON         LGT SNOW  32  27  81 W12       30.25S WCI  23
WILMINGTON     CLOUDY    32  21  64 W14       30.24S WCI  22
HUNTINGTON     FLURRIES  32  23  69 W7        30.24R WCI  26
CHARLESTON     FLURRIES  34  23  64 W10G18    30.20R WCI  26
PINEVILLE*     FLURRIES  34  29  83 MISG      30.22R
BECKLEY        MIX PCPN  29  22  75 W15G22    30.11R WCI  18
BLUEFIELD      CLOUDY    30  23  75 W13G22    30.10R WCI  20
$$

VAZ002-007-008-TNZ017-027-036-066-071-272100
...SOUTHWEST VIRGINIA/EAST TENNESSEE...

CITY           SKY/WX    TMP DP  RH WIND       PRES   REMARKS
WISE*          CLOUDY    30  30 100 NW14      30.17R WCI  20
JONESVILLE*    CLOUDY    32  28  86 W9G17     30.28R WCI  24
ABINGDON*      CLOUDY    34  31  87 W3        30.17R
BRISTOL        CLOUDY    36  28  73 W12       30.21R WCI  28
KNOXVILLE      CLOUDY    38  29  70 W16       30.30R WCI  29
OAK RIDGE      CLOUDY    38  28  67 VRB6      30.33R WCI  33
CROSSVILLE     CLOUDY    33  25  72 NW13      30.30R WCI  24
NASHVILLE      MOSUNNY   40  25  55 N10       30.41S WCI  33
$$

...KEY TO REMARKS...
VSB - VISIBILITY IN MILES
WCI - WIND CHILL INDEX
HX  - HEAT INDEX

$$


USA.gov is the U.S. government's official web portal to all federal, state and local government web resources and services.